SCP
0 0 0 0 0 0 0 0 0 0 0 0 0 0 0 0 0 0 0 0 0 0 0 0 0 0 0 0 0 0 0 0 0 0 0 0 0 0
0 0 0 0 0 0 0 0 0 0 0 0 0 0 0 0 0 0 0 0 0 0 0 0 0 0 0 0 0 0 0 0 0 0 0 0 0 0
0 0 0 0 0 0 0 0 0 0 0 0 0 0 0 0 0 0 0 0 0 0 0 0 0 0 0 0 0 0 0 0 0 0 0 0 0 0
0 0 0 0 0 0 0 0 0 0 0 0 0 0 0 0 0 0 0 0 0 0 0 0 0 0 0 0 0 0 0 0 0 0 0 0 0 0
0 0 0 0 0 0 0 0 0 0 0 0 0 0 0 0 0 0 0 0 0 0 0 0 0 0 0 0 0 0 0 0 0 0 0 0 0 0
0 0 0 0 0 0 0 0 0 0 0 0 0 0 0 0 0 0 0 0 0 0 0 0 0 0 0 0 0 0 0 0 0 0 0 0 0 0
0 0 0 0 0 0 0 0 0 0 0 0 0 0 0 0 0 0 0 0 0 0 0 0 0 0 0 0 0 0 0 0 0 0 0 0 0 0
0 0 0 0 0 0 0 0 0 0 0 0 0 0 0 0 0 0 0 0 0 0 0 0 0 0 0 0 0 0 0 0 0 0 0 0 0 0
0 0 0 0 0 0 0 0 0 0 0 0 0 0 0 0 0 0 0 0 0 0 0 0 0 0 0 0 0 0 0 0 0 0 0 0 0 0
0 0 0 0 0 0 0 0 0 0 0 0 0 0 0 0 0 0 0 0 0 0 0 0 0 0 0 0 0 0 0 0 0 0 0 0 0 0
0 0 0 0 0 0 0 0 0 0 0 0 0 0 0 0 0 0 0 0 0 0 0 0 0 -0 -0 -0 0 0 0 0 0 0 0 0 0 0
0 0 0 0 0 0 0 0 0 0 0 0 0 0 0 0 0 0 0 0 0 0 0 0 0 -0 -0 -0 0 0 0 0 0 0 0 0 0 0
0 0 0 0 0 0 0 0 0 0 0 0 0 0 0 0 0 0 0 0 0 0 0 0 0 0 0 0 0 0 0 0 0 0 0 0 0 0
0 0 0 0 0 0 0 0 0 0 0 0 0 0 0 0 0 0 0 0 0 0 0 0 0 0 0 0 0 0 0 0 0 0 0 0 0 0
0 0 0 0 0 0 0 0 0 0 0 0 0 0 0 0 0 0 0 0 0 0 0 0 0 0 0 0 0 0 0 0 0 0 0 0 0 0
0 0 0 0 0 0 0 0 0 0 0 0 0 0 0 0 0 0 0 0 0 0 0 0 0 0 0 0 0 0 0 0 0 0 0 0 0 0
0 0 0 0 0 0 0 0 0 0 0 0 0 0 0 0 0 0 0 0 0 0 0 0 0 0 0 0 0 0 0 0 0 0 0 0 0 0
0 0 0 0 0 0 0 0 0 0 0 0 0 0 0 0 0 0 0 0 0 0 0 0 0 0 0 0 0 0 0 0 0 0 0 0 0 0
0 0 0 0 0 0 0 0 0 0 0 0 0 0 0 0 0 0 0 0 0 0 0 0 0 0 0 0 0 0 0 0 0 0 0 0 0 0
0 0 0 0 0 0 0 0 0 0 0 0 0 0 0 0 0 0 0 0 0 0 0 0 0 0 0 0 0 0 0 0 0 0 0 0 0 0
0 0 0 0 0 0 0 0 0 0 0 0 0 0 0 0 0 0 0 0 0 0 0 0 0 0 0 0 0 0 0 0 0 0 0 0 0 0
0 0 0 0 0 0 0 0 0 0 0 0 0 0 0 0 0 0 0 0 0 0 0 0 0 0 0 0 0 0 0 0 0 0 0 0 0 0
0 0 0 0 0 0 0 0 0 0 0 0 0 0 0 0 0 0 0 0 0 0 0 0 0 0 0 0 0 0 0 0 0 0 0 0 0 0
Wind_Speed
3 2 2 2 2 2 2 2 2 3 3 3 2 2 2 2 6 4 5 11 13 13 13 13 13 13 12 12 13 13 13 12 11 11 11 11 11 11
2 3 3 2 2 2 2 2 2 3 4 3 2 2 3 4 7 4 5 12 12 12 12 12 12 12 12 12 12 12 13 12 12 11 11 11 11 11
3 3 4 3 2 2 2 2 2 3 5 4 2 2 3 4 5 4 4 4 5 11 12 12 12 12 12 12 12 12 12 12 12 12 12 12 12 11
4 4 4 3 3 3 2 3 3 3 4 5 3 3 3 4 4 5 5 5 4 9 11 11 12 12 12 12 13 12 12 12 12 12 12 12 12 12
5 5 5 4 4 3 3 4 3 3 3 4 4 3 3 3 4 4 5 4 5 7 9 10 11 12 12 12 12 12 12 12 11 11 11 11 12 13
6 6 6 6 6 5 5 5 4 3 3 4 4 3 3 3 2 3 5 4 5 5 6 8 10 11 12 12 12 12 12 12 11 11 11 12 12 12
6 6 6 8 9 7 5 5 4 4 3 4 4 4 3 3 3 2 4 5 5 2 3 4 5 4 5 9 11 11 12 11 11 11 12 12 12 12
6 6 6 8 10 11 11 9 7 5 5 4 4 5 5 3 3 3 3 4 4 2 3 5 3 4 4 4 10 12 11 11 11 12 12 13 13 13
6 6 5 6 8 5 8 10 9 10 9 5 5 6 5 3 3 4 3 4 5 4 3 5 3 4 4 6 12 11 10 11 12 13 13 13 14 14
7 7 6 6 6 6 5 5 5 6 7 5 5 5 5 4 4 4 4 4 5 3 2 4 3 3 5 5 9 9 11 12 13 14 14 14 14 15
7 7 7 6 10 11 6 6 6 6 9 10 10 9 9 8 5 2 2 3 4 3 1 2 3 5 4 3 5 9 11 13 14 14 15 15 15 14
5 6 10 10 11 11 7 6 7 6 5 5 6 7 5 5 7 3 2 3 3 3 1 1 2 3 5 3 3 4 6 10 14 15 16 16 15 8
5 5 6 11 12 13 10 7 9 7 4 4 4 4 3 3 3 3 3 3 4 4 2 1 2 2 3 5 4 4 4 5 6 9 12 14 15 11
6 5 6 11 12 13 9 9 11 9 3 3 4 4 3 3 3 3 3 4 4 5 4 3 3 3 4 6 6 5 5 5 5 6 6 11 12 14
5 9 10 11 11 8 10 11 8 4 3 4 4 4 3 3 2 2 2 3 4 4 4 4 5 4 5 6 7 7 7 6 5 5 5 6 6 6
5 7 10 10 8 7 7 6 4 3 4 4 3 3 2 2 2 2 2 2 3 3 3 4 5 5 5 7 7 9 7 6 5 6 7 7 6 6
4 3 3 3 3 3 3 3 3 3 4 3 3 3 3 3 3 2 2 2 3 4 4 3 3 4 6 7 7 8 7 7 7 7 7 8 7 6
6 4 5 5 5 5 4 4 4 4 4 4 3 3 3 3 3 2 2 3 4 4 4 3 3 4 4 5 9 8 6 6 6 6 6 8 9 7
6 5 5 5 5 5 4 4 4 4 4 4 4 4 3 3 3 3 3 3 4 4 4 3 2 2 5 6 5 6 6 6 6 7 6 6 9 9
5 5 5 5 5 5 5 4 4 4 4 4 4 4 4 3 3 4 3 4 4 4 4 3 3 4 5 6 6 6 8 8 7 8 8 7 8 11
5 5 5 5 5 5 5 4 4 4 4 4 4 4 4 4 4 4 4 7 5 4 5 5 5 7 5 4 6 7 6 9 10 8 8 8 8 7
5 5 5 5 5 5 5 4 4 4 4 4 4 4 4 4 4 5 4 4 4 5 6 5 4 3 3 5 7 9 9 8 9 14 14 12 7 6
5 5 5 5 5 4 4 5 5 4 4 4 4 4 4 4 4 4 5 5 4 5 5 5 4 3 4 5 7 8 10 10 7 7 8 11 14 16
Wind_Direction
241 238 234 244 234 231 226 216 238 284 288 282 284 311 328 326 335 339 328 332 338 338 341 342 343 343 343 344 346 347 344 337 332 325 317 315 313 312
230 233 240 243 241 232 222 222 219 233 265 276 268 289 311 324 332 332 318 332 334 334 337 338 340 341 343 344 345 343 340 337 333 329 325 322 319 318
237 230 241 234 233 237 227 220 223 219 253 273 268 284 293 307 318 316 309 313 318 329 333 337 338 341 342 342 341 338 338 338 337 331 326 325 321 320
238 234 243 238 237 235 227 228 231 226 238 270 281 284 280 295 303 310 318 321 311 321 330 334 336 338 342 341 337 335 336 336 334 334 333 329 322 318
230 229 236 230 240 239 233 235 237 242 234 257 276 273 276 290 303 304 307 304 313 319 326 333 334 334 336 338 337 337 336 333 332 331 332 331 328 322
232 231 231 226 233 233 235 234 233 240 242 253 268 276 275 279 291 304 313 315 313 315 322 326 329 333 336 338 338 336 334 331 330 331 331 331 330 326
237 234 233 235 238 236 234 225 220 230 239 249 264 275 280 286 289 291 304 311 301 298 316 315 317 316 324 328 332 332 332 329 329 332 332 332 331 328
240 241 242 248 250 250 250 244 231 228 233 240 255 264 272 266 270 284 300 317 311 318 324 307 302 300 308 309 323 329 334 337 333 333 331 328 327 326
235 239 244 242 245 242 254 258 258 255 249 239 243 254 261 252 260 275 275 279 276 294 309 292 292 290 298 313 321 326 336 339 337 334 331 328 326 323
231 231 235 242 236 232 231 239 243 251 255 250 240 247 245 242 235 251 264 276 272 270 260 281 295 291 303 302 313 326 335 335 333 331 328 325 323 321
233 230 232 235 246 248 240 238 246 251 258 255 255 259 266 271 266 255 268 289 294 287 243 271 300 307 296 286 305 325 330 330 329 328 326 324 321 318
238 235 242 242 247 250 241 235 247 249 238 253 261 269 269 275 279 249 231 255 277 285 258 278 295 325 314 292 289 306 313 318 322 323 322 320 320 317
240 238 238 248 251 251 248 236 245 250 231 234 242 247 248 247 250 242 226 227 240 253 258 273 277 283 278 297 298 288 290 299 308 310 314 317 318 317
240 237 238 249 254 255 254 248 252 255 233 230 237 242 242 244 244 240 238 236 236 246 251 240 251 265 281 288 289 295 298 294 294 297 299 310 313 313
240 242 247 251 256 255 253 254 253 240 225 234 243 242 233 233 234 247 252 255 259 256 252 239 239 253 257 271 283 292 303 299 287 290 297 300 298 301
250 249 252 252 248 245 248 251 237 224 226 236 245 241 222 219 229 231 251 272 279 279 259 244 240 242 257 263 271 281 282 283 293 295 293 290 285 279
243 233 227 231 232 232 231 228 223 226 233 228 232 238 236 237 242 235 239 254 257 277 290 282 260 255 251 258 267 268 273 275 277 289 297 296 288 279
249 231 232 230 233 234 235 233 225 225 225 223 226 231 234 235 243 238 236 242 257 268 276 283 298 309 298 267 239 257 267 273 283 287 285 289 291 285
247 237 234 232 232 231 230 228 229 226 220 220 227 229 229 230 234 239 243 250 258 264 269 269 268 274 294 298 282 236 258 282 289 289 282 277 283 288
237 238 237 233 228 227 226 226 228 226 223 225 225 223 218 221 228 233 237 244 258 267 273 268 248 239 252 272 282 282 270 270 279 285 287 284 277 281
241 239 236 232 227 225 224 221 220 224 223 220 223 221 215 215 227 231 236 252 259 261 267 269 260 268 266 268 277 280 275 267 269 274 283 290 292 291
245 241 237 232 226 223 222 218 220 223 221 220 221 218 214 214 225 231 235 244 251 255 264 272 275 275 254 261 275 285 291 292 287 284 274 264 269 277
245 243 239 232 227 221 218 218 220 223 221 218 218 217 212 218 225 230 236 242 250 261 271 279 280 268 263 264 274 282 288 294 297 299 288 284 279 273